Time,TemperatureF,DewpointF,PressureIn,WindDirection,WindDirectionDegrees,WindSpeedMPH,WindSpeedGustMPH,Humidity,HourlyPrecipIn,Conditions,Clouds,dailyrainin,SolarRadiationWatts/m^2,SoftwareType,DateUTC
2013-06-26 00:12:00,78.7,75.0,30.09,ESE,119,2.0,4.0,88,0.00,,,0.00,0,weatherlink.com 1.10,2013-06-26 04:12:00,
2013-06-26 00:27:00,78.9,76.0,30.08,South,182,3.0,5.0,89,0.00,,,0.00,0,weatherlink.com 1.10,2013-06-26 04:27:00,
2013-06-26 00:30:00,78.9,75.4,30.08,South,180,2.0,5.0,89,0.00,,---,0.00,0.00,VWS V14.01,2013-06-26 04:30:00,
2013-06-26 00:42:00,79.0,76.0,30.08,WSW,253,2.0,4.0,89,0.00,,,0.00,0,weatherlink.com 1.10,2013-06-26 04:42:00,
2013-06-26 00:57:00,78.8,75.0,30.07,SE,134,2.0,4.0,88,0.00,,,0.00,0,weatherlink.com 1.10,2013-06-26 04:57:00,
2013-06-26 01:00:00,78.8,74.9,30.07,SSE,158,2.0,5.0,88,0.00,,---,0.00,0.00,VWS V14.01,2013-06-26 05:00:00,
2013-06-26 01:12:00,78.9,75.0,30.07,South,172,4.0,6.0,88,0.00,,,0.00,0,weatherlink.com 1.10,2013-06-26 05:12:00,
2013-06-26 01:28:00,79.0,75.0,30.06,South,177,2.0,7.0,88,0.00,,,0.00,0,weatherlink.com 1.10,2013-06-26 05:28:00,
2013-06-26 01:43:00,79.0,76.0,30.06,ESE,115,2.0,4.0,89,0.00,,,0.00,0,weatherlink.com 1.10,2013-06-26 05:43:00,
2013-06-26 01:58:00,79.0,76.0,30.05,SSE,152,2.0,4.0,89,0.00,,,0.00,0,weatherlink.com 1.10,2013-06-26 05:58:00,
2013-06-26 02:13:00,79.1,76.0,30.05,SE,140,2.0,4.0,89,0.00,,,0.00,0,weatherlink.com 1.10,2013-06-26 06:13:00,
2013-06-26 02:28:00,79.0,76.0,30.05,SE,130,2.0,4.0,89,0.00,,,0.00,0,weatherlink.com 1.10,2013-06-26 06:28:00,
2013-06-26 02:30:00,79.0,75.5,30.05,SE,135,2.0,4.0,89,0.00,,---,0.00,0.00,VWS V14.01,2013-06-26 06:30:00,
2013-06-26 02:43:00,79.0,76.0,30.04,ESE,113,2.0,4.0,89,0.00,,,0.00,0,weatherlink.com 1.10,2013-06-26 06:43:00,
2013-06-26 02:58:00,78.9,76.0,30.03,ESE,110,2.0,4.0,90,0.00,,,0.00,0,weatherlink.com 1.10,2013-06-26 06:58:00,
2013-06-26 03:00:00,78.9,75.7,30.03,ESE,112,2.0,4.0,90,0.00,,---,0.00,0.00,VWS V14.01,2013-06-26 07:00:00,
2013-06-26 03:13:00,79.0,76.0,30.03,SSE,166,2.0,3.0,90,0.00,,,0.00,0,weatherlink.com 1.10,2013-06-26 07:13:00,
2013-06-26 03:28:00,79.0,76.0,30.03,ESE,107,1.0,4.0,90,0.00,,,0.00,0,weatherlink.com 1.10,2013-06-26 07:28:00,
2013-06-26 03:30:00,79.0,75.8,30.03,ESE,112,2.0,4.0,90,0.00,,---,0.00,0.00,VWS V14.01,2013-06-26 07:30:00,
2013-06-26 03:43:00,78.9,76.0,30.02,ESE,105,1.0,4.0,90,0.00,,,0.00,0,weatherlink.com 1.10,2013-06-26 07:43:00,
2013-06-26 03:58:00,78.9,76.0,30.02,SE,124,1.0,4.0,90,0.00,,,0.00,0,weatherlink.com 1.10,2013-06-26 07:58:00,
2013-06-26 04:00:00,78.9,75.7,30.02,South,180,2.0,5.0,90,0.00,,---,0.00,0.00,VWS V14.01,2013-06-26 08:00:00,
2013-06-26 04:13:00,78.9,76.0,30.02,ESE,117,2.0,3.0,91,0.00,,,0.00,0,weatherlink.com 1.10,2013-06-26 08:13:00,
2013-06-26 04:28:00,78.8,76.0,30.02,ESE,119,2.0,4.0,91,0.00,,,0.00,0,weatherlink.com 1.10,2013-06-26 08:28:00,
2013-06-26 04:43:00,78.7,76.0,30.02,ESE,115,3.0,4.0,91,0.00,,,0.00,0,weatherlink.com 1.10,2013-06-26 08:43:00,
2013-06-26 04:58:00,78.6,76.0,30.02,SSE,166,2.0,5.0,91,0.00,,,0.00,0,weatherlink.com 1.10,2013-06-26 08:58:00,
2013-06-26 05:00:00,78.6,75.8,30.02,ESE,112,2.0,5.0,91,0.00,,---,0.00,0.00,VWS V14.01,2013-06-26 09:00:00,
2013-06-26 05:13:00,78.5,76.0,30.03,SSE,157,2.0,4.0,91,0.00,,,0.00,0,weatherlink.com 1.10,2013-06-26 09:13:00,
2013-06-26 05:28:00,78.4,75.0,30.04,South,172,2.0,4.0,90,0.00,,,0.00,0,weatherlink.com 1.10,2013-06-26 09:28:00,
2013-06-26 05:43:00,78.4,76.0,30.03,South,182,2.0,4.0,91,0.00,,,0.00,0,weatherlink.com 1.10,2013-06-26 09:43:00,
2013-06-26 05:58:00,78.4,76.0,30.04,SSE,153,1.0,4.0,91,0.00,,,0.00,0,weatherlink.com 1.10,2013-06-26 09:58:00,
2013-06-26 06:00:00,78.5,75.7,30.04,SSE,158,2.0,5.0,91,0.00,,---,0.00,0.00,VWS V14.01,2013-06-26 10:00:00,
2013-06-26 06:13:00,78.4,76.0,30.04,SE,134,1.0,5.0,91,0.00,,,0.00,0,weatherlink.com 1.10,2013-06-26 10:13:00,
2013-06-26 06:28:00,78.4,75.0,30.04,SE,146,3.0,5.0,90,0.00,,,0.00,0,weatherlink.com 1.10,2013-06-26 10:28:00,
2013-06-26 06:43:00,78.4,75.0,30.05,SSE,160,2.0,4.0,90,0.00,,,0.00,11,weatherlink.com 1.10,2013-06-26 10:43:00,
2013-06-26 06:58:00,78.6,76.0,30.06,South,188,4.0,6.0,90,0.00,,,0.00,46,weatherlink.com 1.10,2013-06-26 10:58:00,
2013-06-26 07:00:00,78.6,75.4,30.06,South,180,2.0,6.0,90,0.00,,---,0.00,16.00,VWS V14.01,2013-06-26 11:00:00,
2013-06-26 07:13:00,78.9,76.0,30.06,SSE,159,2.0,5.0,90,0.00,,,0.00,70,weatherlink.com 1.10,2013-06-26 11:13:00,
2013-06-26 07:28:00,79.8,76.0,30.06,SSE,151,3.0,6.0,89,0.00,,,0.00,116,weatherlink.com 1.10,2013-06-26 11:28:00,
2013-06-26 07:43:00,81.0,77.0,30.07,South,171,4.0,6.0,87,0.00,,,0.00,214,weatherlink.com 1.10,2013-06-26 11:43:00,
2013-06-26 07:58:00,82.3,77.0,30.08,ESE,112,3.0,7.0,84,0.00,,,0.00,213,weatherlink.com 1.10,2013-06-26 11:58:00,
2013-06-26 08:00:00,82.4,77.1,30.08,South,180,2.0,7.0,84,0.00,,---,0.00,174.00,VWS V14.01,2013-06-26 12:00:00,
2013-06-26 08:13:00,83.8,77.0,30.07,ESE,109,4.0,5.0,80,0.00,,,0.00,265,weatherlink.com 1.10,2013-06-26 12:13:00,
2013-06-26 08:28:00,85.0,77.0,30.08,East,79,1.0,4.0,78,0.00,,,0.00,155,weatherlink.com 1.10,2013-06-26 12:28:00,
2013-06-26 08:43:00,84.6,76.0,30.08,SE,129,9.0,17.0,75,0.05,,,0.05,95,weatherlink.com 1.10,2013-06-26 12:43:00,
2013-06-26 09:00:00,81.3,75.3,30.07,SE,135,4.0,17.0,82,0.20,,---,0.20,227.00,VWS V14.01,2013-06-26 13:00:00,
2013-06-26 09:13:00,81.1,77.0,30.07,SSW,204,3.0,5.0,87,0.20,,,0.20,489,weatherlink.com 1.10,2013-06-26 13:13:00,
2013-06-26 09:29:00,81.8,78.0,30.07,SE,127,1.0,6.0,89,0.20,,,0.20,540,weatherlink.com 1.10,2013-06-26 13:29:00,
2013-06-26 09:30:00,81.8,78.2,30.07,South,180,2.0,6.0,89,0.20,,---,0.20,498.00,VWS V14.01,2013-06-26 13:30:00,
2013-06-26 09:44:00,82.7,79.0,30.06,SSE,153,2.0,4.0,88,0.13,,,0.20,592,weatherlink.com 1.10,2013-06-26 13:44:00,
2013-06-26 09:59:00,83.8,79.0,30.07,SE,127,3.0,4.0,85,0.00,,,0.20,629,weatherlink.com 1.10,2013-06-26 13:59:00,
2013-06-26 10:00:00,83.8,78.8,30.07,ESE,112,2.0,4.0,85,0.20,,---,0.20,588.00,VWS V14.01,2013-06-26 14:00:00,
2013-06-26 10:14:00,85.2,79.0,30.07,ESE,120,2.0,4.0,82,0.00,,,0.20,687,weatherlink.com 1.10,2013-06-26 14:14:00,
2013-06-26 10:29:00,86.5,79.0,30.07,ESE,116,4.0,5.0,78,0.00,,,0.20,724,weatherlink.com 1.10,2013-06-26 14:29:00,
2013-06-26 10:44:00,87.4,79.0,30.07,SE,135,2.0,4.0,76,0.00,,,0.20,766,weatherlink.com 1.10,2013-06-26 14:44:00,
2013-06-26 10:59:00,88.5,79.0,30.07,SSE,167,3.0,4.0,74,0.00,,,0.20,807,weatherlink.com 1.10,2013-06-26 14:59:00,
2013-06-26 11:00:00,88.4,79.1,30.08,ESE,112,3.0,5.0,74,0.00,,---,0.20,770.00,VWS V14.01,2013-06-26 15:00:00,
2013-06-26 11:14:00,89.5,79.0,30.07,SSE,164,3.0,5.0,71,0.00,,,0.20,849,weatherlink.com 1.10,2013-06-26 15:14:00,
2013-06-26 11:29:00,89.8,79.0,30.08,SSE,165,4.0,6.0,71,0.00,,,0.20,882,weatherlink.com 1.10,2013-06-26 15:29:00,
2013-06-26 11:30:00,89.8,79.1,30.08,South,180,3.0,6.0,71,0.00,,---,0.20,845.00,VWS V14.01,2013-06-26 15:30:00,
2013-06-26 11:44:00,89.6,79.0,30.08,South,180,3.0,7.0,70,0.00,,,0.20,939,weatherlink.com 1.10,2013-06-26 15:44:00,
2013-06-26 11:59:00,89.5,78.0,30.08,South,169,5.0,8.0,69,0.00,,,0.20,1027,weatherlink.com 1.10,2013-06-26 15:59:00,
2013-06-26 12:00:00,89.5,78.4,30.08,South,180,5.0,8.0,70,0.00,,---,0.20,966.00,VWS V14.01,2013-06-26 16:00:00,
2013-06-26 12:14:00,88.6,78.0,30.08,South,185,6.0,9.0,71,0.00,,,0.20,983,weatherlink.com 1.10,2013-06-26 16:14:00,
2013-06-26 12:29:00,87.5,78.0,30.07,South,183,7.0,10.0,73,0.00,,,0.20,1004,weatherlink.com 1.10,2013-06-26 16:29:00,
2013-06-26 12:30:00,87.5,77.8,30.07,South,180,7.0,10.0,73,0.00,,---,0.20,993.00,VWS V14.01,2013-06-26 16:30:00,
2013-06-26 12:44:00,87.5,78.0,30.08,SSW,192,7.0,8.0,74,0.00,,,0.20,1083,weatherlink.com 1.10,2013-06-26 16:44:00,
2013-06-26 12:59:00,87.9,78.0,30.09,WSW,254,4.0,5.0,73,0.00,,,0.20,438,weatherlink.com 1.10,2013-06-26 16:59:00,
2013-06-26 13:00:00,87.9,78.2,30.09,South,180,5.0,9.0,73,0.00,,---,0.20,821.00,VWS V14.01,2013-06-26 17:00:00,
2013-06-26 13:14:00,87.9,79.0,30.08,SSW,198,4.0,6.0,74,0.00,,,0.20,740,weatherlink.com 1.10,2013-06-26 17:14:00,
2013-06-26 13:29:00,87.3,78.0,30.08,SSW,198,5.0,9.0,74,0.00,,,0.20,369,weatherlink.com 1.10,2013-06-26 17:29:00,
2013-06-26 13:30:00,87.5,78.2,30.08,West,270,4.0,9.0,74,0.00,,---,0.20,496.00,VWS V14.01,2013-06-26 17:30:00,
2013-06-26 13:44:00,87.1,79.0,30.07,SSE,166,6.0,8.0,76,0.00,,,0.20,926,weatherlink.com 1.10,2013-06-26 17:44:00,
2013-06-26 13:59:00,87.1,78.0,30.09,SE,130,2.0,9.0,75,0.00,,,0.20,192,weatherlink.com 1.10,2013-06-26 17:59:00,
2013-06-26 14:00:00,87.0,78.1,30.08,SSW,202,5.0,9.0,75,0.00,,---,0.20,755.00,VWS V14.01,2013-06-26 18:00:00,
2013-06-26 14:14:00,86.5,77.0,30.08,SE,135,4.0,8.0,74,0.00,,,0.20,62,weatherlink.com 1.10,2013-06-26 18:14:00,
2013-06-26 14:29:00,84.8,77.0,30.06,SSE,155,4.0,10.0,77,0.00,,,0.20,46,weatherlink.com 1.10,2013-06-26 18:29:00,
2013-06-26 14:44:00,83.6,77.0,30.07,SSE,153,3.0,7.0,80,0.00,,,0.20,44,weatherlink.com 1.10,2013-06-26 18:44:00,
2013-06-26 14:59:00,82.9,77.0,30.06,ESE,123,2.0,4.0,81,0.00,,,0.20,39,weatherlink.com 1.10,2013-06-26 18:59:00,
2013-06-26 15:00:00,82.9,76.5,30.06,SE,135,3.0,7.0,81,0.00,,---,0.20,43.00,VWS V14.01,2013-06-26 19:00:00,
2013-06-26 15:14:00,82.4,76.0,30.08,SE,139,2.0,5.0,82,0.00,,,0.20,30,weatherlink.com 1.10,2013-06-26 19:14:00,
2013-06-26 15:29:00,82.0,76.0,30.07,ESE,113,2.0,4.0,83,0.00,,,0.20,25,weatherlink.com 1.10,2013-06-26 19:29:00,
2013-06-26 15:44:00,81.7,76.0,30.07,SE,130,3.0,6.0,83,0.00,,,0.20,28,weatherlink.com 1.10,2013-06-26 19:44:00,
2013-06-26 15:59:00,81.4,77.0,30.07,ESE,108,2.0,4.0,85,0.00,,,0.20,32,weatherlink.com 1.10,2013-06-26 19:59:00,
2013-06-26 16:00:00,81.4,76.5,30.07,SE,135,3.0,6.0,85,0.00,,---,0.20,28.00,VWS V14.01,2013-06-26 20:00:00,
2013-06-26 16:14:00,81.1,77.0,30.06,SE,133,1.0,4.0,86,0.00,,,0.20,35,weatherlink.com 1.10,2013-06-26 20:14:00,
2013-06-26 16:29:00,80.7,77.0,30.06,SSE,165,2.0,4.0,87,0.01,,,0.21,49,weatherlink.com 1.10,2013-06-26 20:29:00,
2013-06-26 16:30:00,80.7,76.5,30.07,ESE,112,2.0,4.0,87,0.01,,---,0.21,37.00,VWS V14.01,2013-06-26 20:30:00,
2013-06-26 16:44:00,80.5,77.0,30.06,SSE,160,4.0,5.0,88,0.02,,,0.22,69,weatherlink.com 1.10,2013-06-26 20:44:00,
2013-06-26 16:59:00,80.1,77.0,30.05,SSE,167,2.0,7.0,89,0.03,,,0.23,54,weatherlink.com 1.10,2013-06-26 20:59:00,
2013-06-26 17:00:00,80.1,76.6,30.05,SSE,158,3.0,6.0,89,0.03,,---,0.23,62.00,VWS V14.01,2013-06-26 21:00:00,
2013-06-26 17:14:00,79.8,76.0,30.05,South,180,4.0,8.0,89,0.03,,,0.23,46,weatherlink.com 1.10,2013-06-26 21:14:00,
2013-06-26 17:29:00,79.6,76.0,30.04,South,170,4.0,7.0,89,0.02,,,0.23,40,weatherlink.com 1.10,2013-06-26 21:29:00,
2013-06-26 17:44:00,79.3,76.0,30.04,ESE,111,5.0,6.0,89,0.00,,,0.23,33,weatherlink.com 1.10,2013-06-26 21:44:00,
2013-06-26 17:59:00,79.3,76.0,30.04,South,188,6.0,6.0,89,0.00,,,0.23,30,weatherlink.com 1.10,2013-06-26 21:59:00,
2013-06-26 18:14:00,79.3,76.0,30.04,SSE,155,5.0,7.0,89,0.00,,,0.23,32,weatherlink.com 1.10,2013-06-26 22:14:00,
2013-06-26 18:29:00,79.3,76.0,30.04,SSE,165,2.0,6.0,89,0.00,,,0.23,30,weatherlink.com 1.10,2013-06-26 22:29:00,
2013-06-26 18:30:00,79.3,75.8,30.03,South,180,3.0,7.0,89,0.00,,---,0.23,31.00,VWS V14.01,2013-06-26 22:30:00,
2013-06-26 18:44:00,79.3,76.0,30.04,South,184,1.0,4.0,89,0.00,,,0.23,28,weatherlink.com 1.10,2013-06-26 22:44:00,
2013-06-26 19:00:00,79.3,76.0,30.04,South,184,0.0,3.0,89,0.00,,,0.23,26,weatherlink.com 1.10,2013-06-26 23:00:00,
2013-06-26 19:14:00,79.3,76.0,30.04,South,184,0.0,2.0,89,0.01,,,0.24,19,weatherlink.com 1.10,2013-06-26 23:14:00,
2013-06-26 19:29:00,79.4,76.0,30.03,South,184,1.0,2.0,89,0.01,,,0.24,14,weatherlink.com 1.10,2013-06-26 23:29:00,
2013-06-26 19:44:00,79.4,76.0,30.02,North,349,1.0,2.0,90,0.01,,,0.24,9,weatherlink.com 1.10,2013-06-26 23:44:00,
2013-06-26 19:59:00,79.1,76.0,30.02,North,355,1.0,2.0,90,0.01,,,0.24,5,weatherlink.com 1.10,2013-06-26 23:59:00,
2013-06-26 20:14:00,78.9,76.0,30.02,NE,44,3.0,4.0,90,0.00,,,0.24,0,weatherlink.com 1.10,2013-06-27 00:14:00,
2013-06-26 20:29:00,78.4,75.0,30.02,North,360,0.0,2.0,90,0.00,,,0.24,0,weatherlink.com 1.10,2013-06-27 00:29:00,
2013-06-26 20:44:00,78.0,75.0,30.03,North,360,0.0,1.0,90,0.00,,,0.24,0,weatherlink.com 1.10,2013-06-27 00:44:00,
2013-06-26 20:59:00,77.7,75.0,30.04,North,360,0.0,0.0,91,0.00,,,0.24,0,weatherlink.com 1.10,2013-06-27 00:59:00,
2013-06-26 21:00:00,77.7,74.9,30.04,North,0,0.0,1.0,91,0.00,,---,0.24,0.00,VWS V14.01,2013-06-27 01:00:00,
2013-06-26 21:14:00,77.6,75.0,30.05,North,360,0.0,1.0,91,0.00,,,0.24,0,weatherlink.com 1.10,2013-06-27 01:14:00,
2013-06-26 21:30:00,77.7,75.0,30.05,North,360,3.0,3.0,92,0.00,,,0.24,0,weatherlink.com 1.10,2013-06-27 01:30:00,
2013-06-26 21:45:00,77.8,75.0,30.05,South,172,2.0,5.0,92,0.00,,,0.24,0,weatherlink.com 1.10,2013-06-27 01:45:00,
2013-06-26 22:00:00,77.9,76.0,30.06,South,173,3.0,5.0,93,0.00,,,0.24,0,weatherlink.com 1.10,2013-06-27 02:00:00,
2013-06-26 22:15:00,77.8,75.0,30.06,South,180,3.0,6.0,92,0.00,,,0.24,0,weatherlink.com 1.10,2013-06-27 02:15:00,
2013-06-26 22:30:00,77.5,75.0,30.05,South,185,4.0,7.0,92,0.00,,,0.24,0,weatherlink.com 1.10,2013-06-27 02:30:00,
2013-06-26 22:45:00,77.4,75.0,30.05,South,178,5.0,7.0,92,0.00,,,0.24,0,weatherlink.com 1.10,2013-06-27 02:45:00,
2013-06-26 23:00:00,77.5,75.0,30.05,SSE,162,3.0,6.0,91,0.00,,,0.24,0,weatherlink.com 1.10,2013-06-27 03:00:00,
2013-06-26 23:15:00,77.7,75.0,30.05,SSE,162,3.0,5.0,90,0.00,,,0.24,0,weatherlink.com 1.10,2013-06-27 03:15:00,
2013-06-26 23:30:00,77.8,74.0,30.05,South,181,3.0,4.0,89,0.00,,,0.24,0,weatherlink.com 1.10,2013-06-27 03:30:00,
2013-06-26 23:45:00,77.9,75.0,30.05,South,179,2.0,4.0,89,0.00,,,0.24,0,weatherlink.com 1.10,2013-06-27 03:45:00,